Weather History for KPOF - May, 2015

Change the Weather History Date:

Thursday, May 21, 2015

  Actual Average (KCGI) Record (KCGI)
Temperature  
Mean Temperature 54 °F 68 °F  
Max Temperature 61 °F 79 °F 95 °F (1987)
Min Temperature 48 °F 57 °F 43 °F (1968)
Degree Days  
Heating Degree Days 10 2  
Month to date heating degree days 59  
Since 1 July heating degree days 4377  
Cooling Degree Days 0 5  
Month to date cooling degree days 64  
Year to date cooling degree days 95  
Growing Degree Days 4 (Base 50)    
Moisture  
Dew Point 44 °F    
Average Humidity 75    
Maximum Humidity 93    
Minimum Humidity 55    
Precipitation  
Precipitation 0.00 in 0.17 in 1.93 in (1990)
Month to date precipitation 3.94  
Year to date precipitation 19.58  
Sea Level Pressure  
Sea Level Pressure 30.19 in    
Wind  
Wind Speed 10 mph (NNW)    
Max Wind Speed 17 mph    
Max Gust Speed 25 mph    
Visibility 10 miles    
Events Rain    
T = Trace of Precipitation, MM = Missing Value Source: NWS Daily Summary

Daily Weather History Graph

Daily Weather History Graph

Search for Another Location

Airport or City:

Trip Planner

Search our weather history database for the weather conditions in past years. The results will help you decide how hot, cold, wet, or windy it might be!

Date:

Astronomy

May. 21, 2015 Rise Set
Actual Time 5:49 AM CDT 8:06 PM CDT
Civil Twilight 5:20 AM CDT 8:36 PM CDT
Nautical Twilight 4:44 AM CDT 9:12 PM CDT
Astronomical Twilight 4:04 AM CDT 9:51 PM CDT
Moon 9:06 AM CDT (5/21) 11:22 PM CDT (5/21)
Length of Visible Light 15h 15m
Length of Day
14h 17m
Waxing Crescent, 14% of the Moon is Illuminated
May 21
Waxing Crescent
May 25
First Quarter
Jun 2
Full
Jun 9
Last Quarter
Jun 16
New

Hourly Weather History & Observations

Time (CDT) Temp. Dew Point Humidity Pressure Visibility Wind Dir Wind Speed Gust Speed Precip Events Conditions
12:40 AM 50.0 °F 46.0 °F 86% 30.12 in 10.0 mi North 8.1 mph - N/A   Overcast
12:53 AM 50.0 °F 46.0 °F 86% 30.13 in 10.0 mi North 9.2 mph - N/A   Overcast
1:03 AM 50.0 °F 46.0 °F 86% 30.12 in 10.0 mi NNW 8.1 mph - N/A   Overcast
1:15 AM 50.0 °F 46.0 °F 86% 30.12 in 10.0 mi NNW 9.2 mph - N/A   Overcast
1:48 AM 50.0 °F 46.4 °F 87% 30.12 in 10.0 mi NNW 11.5 mph - N/A   Mostly Cloudy
1:53 AM 48.9 °F 45.0 °F 86% 30.12 in 10.0 mi NNW 13.8 mph - N/A   Mostly Cloudy
2:40 AM 50.0 °F 46.0 °F 86% 30.12 in 10.0 mi NNW 8.1 mph - N/A   Mostly Cloudy
2:53 AM 50.0 °F 45.0 °F 83% 30.12 in 10.0 mi NNW 9.2 mph - N/A   Overcast
3:16 AM 50.0 °F 45.0 °F 83% 30.12 in 10.0 mi NNW 11.5 mph - N/A   Overcast
3:35 AM 50.0 °F 44.1 °F 80% 30.13 in 10.0 mi NNW 12.7 mph - N/A   Overcast
3:53 AM 50.0 °F 45.0 °F 83% 30.14 in 10.0 mi NNW 12.7 mph 21.9 mph N/A   Overcast
4:53 AM 48.9 °F 44.1 °F 83% 30.15 in 10.0 mi North 12.7 mph - N/A   Overcast
5:15 AM 48.9 °F 43.0 °F 80% 30.15 in 10.0 mi North 13.8 mph - N/A   Overcast
5:53 AM 48.9 °F 42.1 °F 77% 30.17 in 10.0 mi North 12.7 mph - N/A   Overcast
6:53 AM 48.9 °F 42.1 °F 77% 30.19 in 10.0 mi North 12.7 mph - N/A   Overcast
7:53 AM 48.9 °F 39.9 °F 71% 30.19 in 10.0 mi North 17.3 mph 25.3 mph 0.00 in Rain Light Rain
8:53 AM 50.0 °F 39.9 °F 68% 30.22 in 10.0 mi North 11.5 mph - 0.00 in Rain Light Rain
9:53 AM 50.0 °F 41.0 °F 71% 30.22 in 10.0 mi NNW 9.2 mph - 0.00 in Rain Light Rain
10:53 AM 50.0 °F 42.1 °F 74% 30.23 in 10.0 mi NW 8.1 mph - 0.00 in Rain Light Rain
11:25 AM 52.0 °F 43.0 °F 71% 30.23 in 10.0 mi NNW 12.7 mph - 0.00 in Rain Light Rain
11:44 AM 52.0 °F 42.1 °F 69% 30.23 in 10.0 mi NNW 11.5 mph - 0.00 in Rain Light Rain
11:53 AM 52.0 °F 43.0 °F 71% 30.25 in 10.0 mi NW 11.5 mph - 0.00 in Rain Light Rain
12:53 PM 54.0 °F 44.1 °F 69% 30.24 in 10.0 mi NNW 11.5 mph - 0.00 in Rain Light Rain
1:05 PM 55.0 °F 43.0 °F 64% 30.23 in 10.0 mi North 9.2 mph - 0.00 in Rain Light Rain
1:50 PM 55.4 °F 44.6 °F 67% 30.22 in 10.0 mi NW 12.7 mph - 0.00 in Rain Light Rain
1:53 PM 55.9 °F 44.1 °F 64% 30.23 in 10.0 mi NNW 12.7 mph - 0.00 in Rain Light Rain
2:08 PM 55.9 °F 43.0 °F 62% 30.22 in 10.0 mi NNW 6.9 mph - 0.00 in Rain Light Rain
2:53 PM 57.9 °F 45.0 °F 62% 30.22 in 10.0 mi NW 11.5 mph 16.1 mph 0.00 in Rain Light Rain
3:53 PM 57.9 °F 45.0 °F 62% 30.22 in 10.0 mi North 10.4 mph - 0.00 in Rain Light Rain
4:53 PM 61.0 °F 45.0 °F 56% 30.21 in 10.0 mi NNW 11.5 mph 19.6 mph 0.00 in Rain Light Rain
5:53 PM 60.1 °F 44.1 °F 55% 30.19 in 10.0 mi NNW 9.2 mph - 0.00 in Rain Light Rain
6:53 PM 60.1 °F 44.1 °F 55% 30.19 in 10.0 mi NNW 5.8 mph - 0.00 in Rain Light Rain
7:53 PM 57.0 °F 46.9 °F 69% 30.21 in 10.0 mi NNE 3.5 mph - 0.00 in   Clear
8:53 PM 53.1 °F 48.0 °F 83% 30.21 in 10.0 mi Calm Calm - N/A   Clear
9:53 PM 51.1 °F 46.9 °F 86% 30.22 in 9.0 mi Calm Calm - N/A   Clear
10:53 PM 50.0 °F 46.9 °F 89% 30.23 in 10.0 mi Calm Calm - N/A   Clear
11:53 PM 48.9 °F 46.9 °F 93% 30.24 in 8.0 mi Calm Calm - N/A   Clear